1485766800.95,21786,11.88,73548.3,0.07,-36.19,-36.55,0,*78
1485766802.18,21787,11.94,73548.3,0.07,-36.31,-36.55,0,*73
1485766803.39,21788,11.88,73548.0,0.05,-36.61,-37.03,0,*79
1485766804.58,21789,11.88,73544.8,0.05,-36.43,-36.85,0,*77
1485766805.79,21790,11.88,73546.3,0.05,-36.25,-36.43,0,*75
1485766806.98,21791,11.88,73548.3,0.05,-35.89,-36.19,0,*7E
1485766808.19,21792,11.88,73548.8,0.05,-35.89,-36.37,0,*71
1485766809.4,21793,11.88,73546.5,0.05,-36.49,-36.97,0,*75
1485766810.61,21794,11.88,73544.8,0.05,-36.61,-37.03,0,*74
1485766811.82,21795,11.88,73546.0,0.05,-36.49,-36.97,0,*73
1485766813.04,21796,11.88,73548.8,0.05,-36.43,-36.61,0,*73
1485766814.25,21797,11.88,73546.8,0.05,-36.25,-36.43,0,*72
1485766815.49,21798,11.88,73544.8,0.01,-36.25,-36.61,0,*79
1485766816.73,21799,11.88,73540.8,0.05,-36.25,-36.61,0,*7C
1485766817.93,21800,11.88,73544.3,0.05,-35.47,-36.01,0,*72
1485766819.16,21801,11.88,73546.8,0.07,-36.13,-36.43,0,*75
1485766820.43,21802,11.94,73544.5,0.07,-36.37,-36.79,0,*79
1485766821.67,21803,11.88,73550.3,0.07,-36.55,-36.91,0,*7A
1485766822.88,21804,11.88,73546.8,0.09,-36.79,-37.27,0,*71
1485766824.07,21805,11.88,73544.3,0.05,-36.67,-37.15,0,*72
1485766825.31,21806,11.88,73550.5,0.05,-36.25,-36.61,0,*75
1485766826.53,21807,11.88,73544.3,0.05,-36.37,-36.67,0,*71
1485766827.78,21808,11.88,73544.8,0.07,-36.13,-36.37,0,*7F
1485766829.02,21809,11.88,73546.5,0.05,-36.25,-36.61,0,*7A
1485766830.29,21810,11.88,73546.3,0.07,-36.79,-37.09,0,*76
1485766831.48,21811,11.88,73542.5,0.05,-36.67,-37.15,0,*77
1485766832.69,21812,11.88,73546.3,0.05,-36.49,-37.03,0,*7F
1485766833.88,21813,11.88,73548.0,0.05,-36.67,-36.97,0,*7E
1485766835.1,21814,11.88,73546.3,0.05,-36.25,-36.67,0,*70
1485766836.33,21815,11.88,73548.5,0.05,-36.37,-36.79,0,*7D
1485766837.54,21816,11.88,73552.3,0.05,-36.49,-36.85,0,*74
1485766838.75,21817,11.88,73540.5,0.01,-36.49,-36.85,0,*71
1485766839.94,21818,11.88,73546.0,0.05,-36.43,-36.85,0,*70
1485766841.17,21819,11.88,73544.0,0.01,-36.61,-37.09,0,*70
1485766842.38,21820,11.88,73544.8,0.05,-36.43,-36.79,0,*78
1485766843.6,21821,11.88,73546.3,0.01,-36.07,-36.49,0,*7E
1485766844.81,21822,11.88,73550.3,0.01,-35.95,-36.31,0,*7A
1485766846.06,21823,11.88,73546.5,0.07,-35.95,-36.31,0,*7D
1485766847.28,21824,11.88,73550.5,0.07,-36.19,-36.43,0,*78
1485766848.54,21825,11.88,73546.0,0.07,-35.95,-36.37,0,*7D
1485766849.79,21826,11.88,73550.0,0.07,-35.95,-36.31,0,*78
1485766851.03,21827,11.88,73548.8,0.07,-36.55,-37.09,0,*7C
1485766852.27,21828,11.88,73548.8,0.07,-36.13,-36.43,0,*7E
1485766853.49,21829,11.88,73546.8,0.07,-36.01,-36.31,0,*79
1485766854.73,21830,11.88,73550.3,0.07,-36.01,-36.37,0,*77
1485766855.92,21831,11.88,73550.5,0.09,-36.31,-36.73,0,*7B
1485766857.13,21832,11.88,73548.5,0.09,-36.19,-36.61,0,*71
1485766858.37,21833,11.88,73546.3,0.07,-36.19,-36.61,0,*7E
1485766859.59,21834,11.88,73544.3,0.07,-36.31,-36.55,0,*74
1485766860.85,21835,11.88,73550.3,0.07,-36.37,-36.79,0,*7D
1485766862.12,21836,11.88,73544.3,0.07,-35.83,-36.13,0,*7E
1485766863.33,21837,11.88,73548.5,0.09,-35.83,-36.19,0,*7B
1485766864.52,21838,11.88,73548.0,0.09,-36.19,-36.43,0,*7B
1485766865.73,21839,11.88,73546.8,0.09,-36.79,-37.15,0,*7E
1485766866.95,21840,11.88,73544.8,0.07,-36.55,-36.97,0,*7B
1485766868.19,21841,11.88,73544.0,0.07,-35.95,-36.31,0,*79
1485766869.46,21842,11.88,73546.5,0.07,-35.83,-36.13,0,*7D
1485766870.68,21843,11.88,73544.0,0.09,-36.31,-36.61,0,*7D
1485766871.87,21844,11.88,73546.3,0.09,-36.31,-36.55,0,*7D
1485766873.08,21845,11.88,73548.3,0.09,-36.13,-36.31,0,*7E
1485766874.29,21846,11.88,73546.3,0.09,-36.31,-36.61,0,*78
1485766875.48,21847,11.88,73546.8,0.09,-36.01,-36.43,0,*7A
1485766876.7,21848,11.88,73548.5,0.07,-36.19,-36.43,0,*72
1485766877.89,21849,11.88,73542.8,0.09,-36.19,-36.55,0,*7A
1485766879.1,21850,11.88,73542.3,0.09,-36.31,-36.61,0,*7F
1485766880.31,21851,11.88,73544.3,0.09,-36.31,-36.61,0,*7E
1485766881.5,21852,11.88,73544.5,0.09,-36.19,-36.55,0,*70
1485766882.72,21853,11.88,73544.0,0.09,-35.65,-36.01,0,*78
1485766883.95,21854,11.88,73548.0,0.09,-35.83,-36.13,0,*74
1485766885.17,21855,11.88,73546.8,0.09,-35.77,-36.13,0,*7E
1485766886.41,21856,11.88,73550.5,0.11,-35.53,-35.89,0,*42
1485766887.66,21857,11.88,73548.0,0.13,-35.23,-35.71,0,*41
1485766888.88,21858,11.88,73546.5,0.11,-35.77,-36.07,0,*4F
1485766890.13,21859,11.88,73548.5,0.13,-35.89,-36.25,0,*4D
1485766891.39,21860,11.88,73546.0,0.13,-36.13,-36.37,0,*44
1485766892.64,21861,11.88,73546.3,0.11,-35.59,-35.95,0,*41
1485766893.88,21862,11.88,73546.5,0.11,-36.07,-36.37,0,*41
1485766895.13,21863,11.88,73546.5,0.13,-36.25,-36.67,0,*47
1485766896.37,21864,11.88,73540.8,0.13,-36.31,-36.55,0,*44
1485766897.59,21865,11.88,73546.3,0.15,-35.53,-35.89,0,*46
1485766898.79,21866,11.88,73544.0,0.15,-35.89,-36.31,0,*42
1485766900.04,21867,11.88,73548.0,0.13,-35.89,-36.25,0,*40
1485766901.31,21868,11.88,73542.3,0.13,-36.13,-36.49,0,*45
1485766902.56,21869,11.88,73546.3,0.13,-36.07,-36.25,0,*4B
1485766903.76,21870,11.88,73544.3,0.15,-36.19,-36.67,0,*4C
1485766904.99,21871,11.88,73546.0,0.15,-36.25,-36.67,0,*42
1485766906.24,21872,11.88,73546.8,0.15,-36.25,-36.61,0,*47
1485766907.46,21873,11.88,73544.3,0.15,-35.83,-36.19,0,*46
1485766908.66,21874,11.88,73546.0,0.15,-35.71,-36.07,0,*43
1485766909.9,21875,11.88,73544.8,0.17,-36.01,-36.25,0,*44
1485766911.1,21876,11.88,73546.0,0.15,-36.31,-36.67,0,*40
1485766912.35,21877,11.88,73546.8,0.15,-36.25,-36.61,0,*42
1485766913.6,21878,11.88,73546.5,0.15,-36.25,-36.61,0,*4D
1485766914.8,21879,11.88,73544.8,0.15,-36.07,-36.43,0,*4C
1485766916.03,21880,11.88,73546.3,0.15,-35.89,-36.25,0,*4F
1485766917.26,21881,11.88,73550.8,0.15,-36.01,-36.25,0,*4D
1485766918.48,21882,11.88,73548.8,0.15,-36.43,-36.79,0,*41
1485766919.72,21883,11.88,73550.0,0.17,-36.79,-37.03,0,*47
1485766920.91,21884,11.88,73550.8,0.15,-36.19,-36.31,0,*44
1485766922.13,21885,11.88,73548.8,0.15,-36.07,-36.49,0,*45
1485766923.35,21886,11.88,73542.5,0.17,-36.01,-36.31,0,*4D
1485766924.55,21887,11.88,73544.0,0.15,-36.07,-36.43,0,*4D
1485766925.79,21888,11.88,73546.3,0.17,-36.31,-36.79,0,*4C
1485766927.04,21889,11.88,73544.0,0.17,-36.25,-36.43,0,*41
1485766928.3,21890,11.88,73544.5,0.17,-36.49,-36.79,0,*4A
1485766929.55,21891,11.88,73544.8,0.17,-36.43,-36.61,0,*48
1485766930.76,21892,11.88,73546.0,0.17,-36.07,-36.43,0,*4B
1485766931.99,21893,11.88,73550.3,0.15,-36.01,-36.25,0,*4E
1485766933.21,21894,11.88,73550.8,0.15,-36.61,-37.03,0,*4A
1485766934.45,21895,11.88,73546.0,0.17,-36.49,-36.85,0,*4C
1485766935.67,21896,11.88,73546.5,0.15,-36.61,-36.97,0,*44
1485766936.89,21897,11.88,73550.5,0.15,-36.43,-36.79,0,*45
1485766938.09,21898,11.88,73548.8,0.15,-36.01,-36.31,0,*40
1485766939.32,21899,11.88,73544.3,0.15,-36.25,-36.67,0,*44
1485766940.54,21900,11.88,73550.5,0.17,-36.01,-36.43,0,*47
1485766941.79,21901,11.88,73548.8,0.17,-35.89,-36.25,0,*45
1485766943.06,21902,11.88,73544.5,0.17,-36.25,-36.61,0,*43
1485766944.28,21903,11.88,73544.0,0.15,-36.61,-37.03,0,*45
1485766945.52,21904,11.88,73548.8,0.17,-36.07,-36.49,0,*4F
1485766946.72,21905,11.88,73550.0,0.15,-36.01,-36.31,0,*45
1485766947.96,21906,11.88,73544.5,0.17,-36.01,-36.25,0,*41
1485766949.18,21907,11.88,73544.5,0.17,-36.19,-36.31,0,*4C
1485766950.43,21908,11.88,73546.0,0.17,-35.89,-36.25,0,*4C
1485766951.64,21909,11.88,73548.8,0.17,-36.31,-36.85,0,*47
1485766952.89,21910,11.88,73546.5,0.17,-36.25,-36.67,0,*46
1485766954.13,21911,11.88,73548.5,0.17,-36.07,-36.49,0,*4B
1485766955.35,21912,11.88,73544.5,0.17,-36.07,-36.43,0,*42
1485766956.57,21913,11.88,73544.8,0.17,-36.43,-36.85,0,*49
1485766957.81,21914,11.88,73544.0,0.17,-36.61,-36.97,0,*4D
1485766959.04,21915,11.88,73546.8,0.15,-36.25,-36.67,0,*41
1485766960.29,21916,11.88,73544.8,0.17,-36.25,-36.67,0,*40
1485766961.52,21917,11.88,73544.8,0.17,-36.19,-36.79,0,*41
1485766962.74,21918,11.88,73546.0,0.17,-36.43,-36.85,0,*42
1485766963.96,21919,11.88,73550.3,0.17,-36.67,-37.03,0,*4A
1485766965.2,21920,11.88,73548.3,0.17,-36.61,-37.15,0,*41
1485766966.42,21921,11.88,73550.3,0.17,-36.07,-36.43,0,*42
1485766967.64,21922,11.88,73546.8,0.17,-36.01,-36.43,0,*47
1485766968.86,21923,11.88,73548.8,0.17,-36.01,-36.31,0,*43
1485766970.1,21924,11.88,73548.8,0.17,-36.19,-36.61,0,*48
1485766971.32,21925,11.88,73548.5,0.17,-35.89,-36.31,0,*46
1485766972.53,21926,11.88,73546.8,0.19,-36.43,-36.79,0,*42
1485766973.75,21927,11.88,73548.8,0.21,-36.43,-36.97,0,*48
1485766974.98,21928,11.88,73546.8,0.19,-36.43,-36.91,0,*4A
1485766976.22,21929,11.88,73548.3,0.19,-36.25,-36.61,0,*44
1485766977.47,21930,11.88,73546.5,0.19,-36.25,-36.61,0,*4C
1485766978.69,21931,11.88,73546.3,0.19,-36.19,-36.37,0,*41
1485766979.92,21932,11.88,73550.3,0.19,-35.95,-36.55,0,*41
1485766981.14,21933,11.88,73548.0,0.21,-36.01,-36.19,0,*4D
1485766982.38,21934,11.88,73548.0,0.21,-36.13,-36.43,0,*46
1485766983.66,21935,11.88,73548.0,0.21,-35.95,-36.25,0,*4A
1485766984.88,21936,11.88,73550.3,0.19,-36.25,-36.73,0,*49
1485766986.08,21937,11.88,73548.5,0.19,-36.01,-36.43,0,*4D
1485766987.32,21938,11.88,73550.3,0.21,-36.01,-36.37,0,*4A
1485766988.57,21939,11.88,73548.5,0.21,-35.59,-35.83,0,*49
1485766989.81,21940,11.88,73546.8,0.21,-35.83,-36.19,0,*40
1485766991.05,21941,11.88,73550.0,0.21,-36.13,-36.43,0,*44
1485766992.32,21942,11.88,73546.3,0.21,-36.37,-36.61,0,*41
1485766993.57,21943,11.88,73548.8,0.21,-36.43,-36.79,0,*4A
1485766994.77,21944,11.88,73548.8,0.19,-36.19,-36.55,0,*47
1485766996.04,21945,11.88,73550.5,0.21,-36.37,-36.91,0,*49
1485766997.27,21946,11.88,73548.5,0.21,-36.19,-36.37,0,*4A
1485766998.52,21947,11.88,73550.8,0.21,-36.01,-36.25,0,*41
1485766999.77,21948,11.88,73550.0,0.19,-35.95,-36.37,0,*48
1485767001.02,21949,11.88,73550.5,0.21,-36.13,-36.55,0,*4B
1485767002.24,21950,11.88,73546.3,0.19,-36.25,-36.73,0,*49
1485767003.51,21951,11.88,73546.0,0.21,-36.13,-36.37,0,*46
1485767004.75,21952,11.88,73552.3,0.21,-36.55,-36.79,0,*4D
1485767005.95,21953,11.88,73550.5,0.23,-36.07,-36.31,0,*45
1485767007.17,21954,11.88,73550.0,0.23,-36.07,-36.49,0,*4D
1485767008.42,21955,11.88,73550.3,0.23,-35.95,-36.13,0,*4B
1485767009.62,21956,11.88,73548.5,0.23,-36.31,-36.67,0,*46
1485767010.86,21957,11.88,73550.0,0.23,-36.13,-36.49,0,*4B
1485767012.11,21958,11.88,73554.3,0.23,-35.95,-36.13,0,*46
1485767013.31,21959,11.88,73548.8,0.27,-35.71,-35.89,0,*49
1485767014.51,21960,11.88,73550.3,0.27,-36.07,-36.43,0,*44
1485767015.76,21961,11.88,73552.3,0.27,-36.25,-36.49,0,*4F
1485767016.96,21962,11.88,73550.0,0.27,-36.01,-36.19,0,*4F
1485767018.2,21963,11.88,73548.5,0.27,-35.83,-36.13,0,*4D
1485767019.42,21964,11.88,73550.8,0.27,-35.83,-36.07,0,*4F
1485767020.65,21965,11.88,73546.3,0.27,-36.31,-36.61,0,*44
1485767021.86,21966,11.88,73548.0,0.27,-36.61,-36.85,0,*48
1485767023.08,21967,11.88,73546.8,0.27,-36.07,-36.49,0,*49
1485767024.29,21968,11.88,73550.8,0.23,-36.19,-36.55,0,*40
1485767025.51,21969,11.88,73554.0,0.27,-36.07,-36.25,0,*4D
1485767026.74,21970,11.88,73546.0,0.27,-36.01,-36.25,0,*43
1485767027.93,21971,11.88,73544.5,0.27,-36.01,-36.31,0,*47
1485767029.13,21972,11.88,73550.0,0.27,-36.67,-37.03,0,*44
1485767030.33,21973,11.88,73544.8,0.27,-36.31,-36.67,0,*45
1485767031.57,21974,11.88,73548.8,0.27,-36.13,-36.49,0,*4E
1485767032.78,21975,11.88,73546.3,0.27,-35.71,-36.01,0,*44
1485767033.99,21976,11.88,73550.0,0.27,-36.49,-36.85,0,*43
1485767035.24,21977,11.88,73550.8,0.27,-36.49,-36.79,0,*41
1485767036.46,21978,11.88,73546.0,0.27,-36.61,-36.97,0,*44
1485767037.68,21979,11.88,73546.5,0.23,-36.13,-36.55,0,*4A
1485767038.92,21980,11.88,73550.3,0.27,-36.13,-36.49,0,*45
1485767040.14,21981,11.88,73548.3,0.27,-36.61,-36.97,0,*42
1485767041.34,21982,11.88,73546.3,0.23,-36.73,-37.03,0,*4A
1485767042.56,21983,11.88,73546.8,0.23,-36.67,-36.91,0,*44
1485767043.79,21984,11.88,73544.5,0.23,-36.07,-36.49,0,*40
1485767045.01,21985,11.88,73548.5,0.23,-36.55,-36.79,0,*45
1485767046.25,21986,11.88,73546.3,0.27,-36.13,-36.61,0,*49
1485767047.49,21987,11.88,73550.0,0.23,-36.13,-36.49,0,*46
1485767048.69,21988,11.88,73548.3,0.27,-36.43,-36.67,0,*44
1485767049.93,21989,11.88,73548.0,0.27,-36.13,-36.49,0,*4C
1485767051.15,21990,11.88,73548.5,0.27,-36.13,-36.43,0,*4E
1485767052.4,21991,11.88,73548.0,0.27,-36.25,-36.61,0,*4A
1485767053.62,21992,11.88,73544.5,0.23,-35.95,-36.19,0,*4A
1485767054.84,21993,11.88,73550.5,0.27,-35.83,-36.07,0,*47
1485767056.04,21994,11.88,73550.0,0.27,-36.01,-36.31,0,*4C
1485767057.29,21995,11.88,73548.5,0.27,-36.25,-36.61,0,*4E
1485767058.49,21996,11.88,73544.5,0.27,-36.31,-36.67,0,*4E
1485767059.71,21997,11.88,73546.8,0.27,-36.13,-36.43,0,*49
1485767060.94,21998,11.88,73544.5,0.27,-35.83,-35.89,0,*49
1485767062.13,21999,11.88,73548.5,0.27,-35.71,-36.07,0,*40
1485767063.33,22000,11.88,73544.8,0.27,-36.01,-36.31,0,*4B
1485767064.58,22001,11.88,73552.0,0.29,-36.49,-36.67,0,*4B
1485767065.8,22002,11.88,73550.5,0.29,-36.67,-36.85,0,*48
1485767067.04,22003,11.88,73548.5,0.29,-36.31,-36.61,0,*40
1485767068.27,22004,11.88,73548.3,0.27,-36.25,-36.43,0,*4C
1485767069.54,22005,11.88,73546.5,0.29,-36.25,-36.61,0,*43
1485767070.81,22006,11.88,73546.5,0.29,-36.25,-36.49,0,*4A
1485767072.08,22007,11.88,73546.8,0.29,-36.49,-36.79,0,*42
1485767073.32,22008,11.88,73548.3,0.29,-36.31,-36.61,0,*4B
1485767074.57,22009,11.88,73546.8,0.29,-36.31,-36.49,0,*40
1485767075.79,22010,11.88,73548.8,0.29,-36.07,-36.31,0,*42
1485767077.04,22011,11.88,73542.8,0.29,-36.25,-36.67,0,*40
1485767078.3,22012,11.88,73550.5,0.29,-36.13,-36.49,0,*4A
1485767079.54,22013,11.88,73548.3,0.29,-35.53,-35.71,0,*44
1485767080.79,22014,11.88,73548.0,0.31,-35.83,-35.95,0,*4D
1485767081.99,22015,11.88,73552.3,0.31,-35.89,-36.31,0,*4B
1485767083.25,22016,11.88,73548.8,0.29,-36.49,-36.79,0,*42
1485767084.45,22017,11.88,73548.5,0.31,-36.55,-36.73,0,*4D
1485767085.7,22018,11.88,73546.0,0.29,-35.89,-36.13,0,*4F
1485767086.94,22019,11.88,73548.5,0.29,-36.07,-36.25,0,*4E
1485767088.17,22020,11.88,73550.3,0.29,-36.07,-36.31,0,*41
1485767089.39,22021,11.88,73550.5,0.31,-36.01,-36.25,0,*4A
1485767090.63,22022,11.88,73550.8,0.29,-36.67,-36.79,0,*49
1485767091.85,22023,11.88,73546.3,0.31,-35.95,-36.07,0,*46
1485767093.09,22024,11.88,73544.5,0.29,-36.13,-36.43,0,*45
1485767094.33,22025,11.88,73550.5,0.31,-36.37,-36.79,0,*42
1485767095.61,22026,11.88,73548.3,0.29,-36.25,-36.49,0,*48
1485767096.87,22027,11.88,73546.3,0.29,-36.49,-36.79,0,*40
1485767098.12,22028,11.88,73548.0,0.29,-36.49,-36.67,0,*40
1485767099.37,22029,11.88,73548.0,0.29,-36.43,-36.49,0,*47
1485767100.62,22030,11.88,73554.5,0.29,-35.83,-35.89,0,*4F
1485767101.86,22031,11.88,73548.5,0.29,-35.83,-36.07,0,*4B
1485767103.11,22032,11.88,73548.5,0.29,-36.67,-36.79,0,*48
1485767104.33,22033,11.88,73544.5,0.29,-36.43,-36.67,0,*40
1485767105.55,22034,11.81,73544.5,0.31,-36.43,-36.61,0,*48
1485767106.75,22035,11.88,73546.8,0.31,-36.07,-36.31,0,*4C
1485767108.02,22036,11.88,73546.3,0.29,-36.61,-36.79,0,*4A
1485767109.26,22037,11.88,73548.5,0.31,-36.37,-36.37,0,*4B
1485767110.5,22038,11.88,73548.3,0.31,-36.61,-36.91,0,*4B
1485767111.74,22039,11.88,73548.8,0.29,-36.79,-37.03,0,*40
1485767113.01,22040,11.88,73548.8,0.29,-36.25,-36.49,0,*48
1485767114.28,22041,11.88,73548.8,0.29,-36.61,-36.79,0,*4A
1485767115.54,22042,11.88,73548.3,0.29,-36.49,-36.79,0,*43
1485767116.76,22043,11.88,73546.8,0.29,-36.85,-36.85,0,*41
1485767118.03,22044,11.88,73548.3,0.29,-36.61,-36.79,0,*4F
1485767119.28,22045,11.88,73548.3,0.23,-36.91,-37.09,0,*4D
1485767120.47,22046,11.88,73548.0,0.27,-36.67,-36.85,0,*46
1485767121.72,22047,11.81,73550.3,0.27,-36.25,-36.49,0,*41
1485767122.97,22048,11.88,73550.3,0.27,-36.25,-36.49,0,*4E
1485767124.19,22049,11.88,73548.3,0.27,-36.49,-36.67,0,*49
1485767125.39,22050,11.88,73546.5,0.23,-36.55,-36.73,0,*4D
1485767126.62,22051,11.88,73550.0,0.27,-36.49,-36.67,0,*40
1485767127.81,22052,11.88,73550.3,0.27,-36.67,-36.97,0,*40
1485767129.06,22053,11.81,73550.0,0.27,-36.49,-36.79,0,*4D
1485767130.28,22054,11.88,73550.0,0.27,-36.43,-36.79,0,*40
1485767131.52,22055,11.81,73548.0,0.29,-36.13,-36.43,0,*43
1485767132.79,22056,11.88,73550.0,0.29,-36.25,-36.61,0,*45
1485767134.03,22057,11.88,73550.8,0.29,-36.01,-36.13,0,*47
1485767135.3,22058,11.88,73548.5,0.29,-36.13,-36.49,0,*44
1485767136.54,22059,11.88,73550.0,0.29,-36.61,-36.85,0,*40
1485767137.78,22060,11.88,73550.3,0.27,-36.61,-36.79,0,*47
1485767139.04,22061,11.88,73550.8,0.29,-36.25,-36.67,0,*47
1485767140.25,22062,11.88,73546.3,0.27,-36.43,-36.79,0,*45
1485767141.48,22063,11.88,73550.8,0.23,-36.85,-37.21,0,*46
1485767142.68,22064,11.81,73548.0,0.27,-36.67,-36.97,0,*45
1485767143.88,22065,11.88,73544.0,0.27,-36.31,-36.67,0,*48
1485767145.08,22066,11.88,73550.0,0.27,-36.67,-36.97,0,*47
1485767146.3,22067,11.88,73548.5,0.27,-36.85,-37.21,0,*46
1485767147.5,22068,11.88,73550.3,0.27,-36.67,-36.97,0,*49
1485767148.7,22069,11.88,73548.8,0.27,-36.67,-37.03,0,*44
1485767149.92,22070,11.81,73546.5,0.27,-36.79,-37.15,0,*44
1485767151.16,22071,11.88,73546.0,0.27,-36.25,-36.79,0,*47
1485767152.38,22072,11.81,73546.5,0.27,-36.49,-36.97,0,*4E
1485767153.6,22073,11.88,73546.0,0.23,-36.37,-36.85,0,*41
1485767154.82,22074,11.81,73542.8,0.23,-36.67,-36.91,0,*46
1485767156.02,22075,11.88,73548.3,0.23,-36.31,-36.67,0,*4D
1485767157.24,22076,11.88,73546.8,0.27,-36.31,-36.79,0,*45
1485767158.46,22077,11.81,73546.0,0.23,-36.49,-36.85,0,*4C
1485767159.7,22078,11.88,73546.3,0.27,-36.13,-36.61,0,*42
1485767160.92,22079,11.88,73550.3,0.27,-36.31,-36.79,0,*4A
1485767162.12,22080,11.88,73546.0,0.27,-36.07,-36.43,0,*40
1485767163.34,22081,11.81,73550.5,0.23,-35.95,-36.19,0,*42
1485767164.59,22082,11.88,73550.0,0.27,-35.83,-36.25,0,*4D
1485767165.82,22083,11.88,73548.3,0.27,-36.25,-36.67,0,*45
1485767167.04,22084,11.81,73544.5,0.23,-36.37,-36.85,0,*49
1485767168.29,22085,11.81,73546.0,0.27,-35.83,-36.25,0,*4A
1485767169.53,22086,11.81,73546.5,0.27,-36.13,-36.61,0,*43
1485767170.8,22087,11.88,73548.0,0.29,-36.13,-36.61,0,*4C
1485767172.04,22088,11.88,73550.5,0.29,-35.89,-36.49,0,*49
1485767173.26,22089,11.81,73546.5,0.29,-35.89,-36.31,0,*47
1485767174.5,22090,11.81,73544.8,0.29,-36.49,-37.03,0,*40
1485767175.75,22091,11.88,73548.3,0.31,-36.25,-36.61,0,*47
1485767177.01,22092,11.88,73544.3,0.29,-36.13,-36.49,0,*42
1485767178.28,22093,11.88,73548.8,0.29,-36.25,-36.79,0,*45
1485767179.53,22094,11.81,73548.3,0.31,-36.25,-36.61,0,*42
1485767180.75,22095,11.81,73548.5,0.29,-35.89,-36.31,0,*4A
1485767182.0,22096,11.81,73548.5,0.29,-36.25,-36.67,0,*4F
1485767183.22,22097,11.81,73548.8,0.29,-36.01,-36.43,0,*4E
1485767184.45,22098,11.81,73546.0,0.31,-36.25,-36.73,0,*4D
1485767185.69,22099,11.81,73546.8,0.29,-36.07,-36.49,0,*4C
1485767186.93,22100,11.88,73550.5,0.29,-36.49,-36.97,0,*44
1485767188.18,22101,11.88,73548.0,0.29,-35.89,-36.49,0,*49
1485767189.37,22102,11.88,73550.0,0.31,-36.19,-36.73,0,*40
1485767190.62,22103,11.88,73548.0,0.29,-36.49,-36.97,0,*47
1485767191.83,22104,11.81,73550.5,0.31,-36.43,-36.79,0,*43
1485767193.07,22105,11.81,73548.0,0.29,-35.71,-36.13,0,*45
1485767194.29,22106,11.81,73548.0,0.31,-35.65,-36.01,0,*49
1485767195.54,22107,11.88,73550.3,0.29,-35.53,-35.89,0,*47
1485767196.78,22108,11.88,73550.0,0.29,-36.07,-36.61,0,*4F
1485767198.03,22109,11.81,73548.0,0.29,-36.13,-36.67,0,*4D
1485767199.24,22110,11.81,73548.5,0.31,-36.19,-36.61,0,*40
1485767200.49,22111,11.88,73554.0,0.29,-36.01,-36.49,0,*4B
1485767201.69,22112,11.81,73552.3,0.31,-36.07,-36.55,0,*4A
1485767202.91,22113,11.81,73554.5,0.31,-35.83,-36.07,0,*43
1485767204.1,22114,11.81,73552.0,0.31,-35.13,-35.47,0,*4A
1485767205.35,22115,11.81,73554.0,0.33,-35.59,-35.95,0,*48
1485767206.57,22116,11.81,73554.5,0.35,-35.23,-35.59,0,*40
1485767207.79,22117,11.81,73552.0,0.35,-35.65,-36.01,0,*4D
1485767208.99,22118,11.81,73550.3,0.35,-35.77,-36.19,0,*48
1485767210.2,22119,11.88,73554.0,0.33,-35.59,-36.07,0,*4C
1485767211.41,22120,11.88,73554.8,0.35,-35.89,-36.37,0,*4E
1485767212.64,22121,11.88,73552.3,0.35,-36.13,-36.67,0,*4A
1485767213.88,22122,11.81,73546.8,0.33,-36.07,-36.61,0,*4C
1485767215.07,22123,11.81,73550.5,0.35,-35.89,-36.19,0,*41
1485767216.29,22124,11.88,73552.0,0.35,-35.95,-36.19,0,*4B
1485767217.49,22125,11.81,73550.5,0.35,-36.55,-37.03,0,*4F
1485767218.69,22126,11.88,73554.0,0.35,-36.85,-37.15,0,*46
1485767219.89,22127,11.88,73550.3,0.35,-36.31,-36.67,0,*4C
1485767221.12,22128,11.88,73552.0,0.35,-35.95,-36.31,0,*4D
1485767222.36,22129,11.88,73554.3,0.33,-36.61,-36.97,0,*4E
1485767223.58,22130,11.88,73554.3,0.35,-36.49,-36.73,0,*40
1485767224.84,22131,11.88,73552.0,0.33,-36.37,-36.91,0,*42
1485767226.07,22132,11.81,73548.8,0.33,-36.19,-36.55,0,*45
1485767227.26,22133,11.81,73550.8,0.35,-36.31,-36.73,0,*4C
1485767228.47,22134,11.81,73548.0,0.35,-36.19,-36.55,0,*45
1485767229.71,22135,11.81,73550.3,0.35,-36.49,-36.91,0,*49
1485767230.93,22136,11.81,73546.8,0.35,-36.55,-36.91,0,*47
1485767232.13,22137,11.81,73550.8,0.35,-35.89,-36.31,0,*4E
1485767233.37,22138,11.81,73548.8,0.35,-35.95,-36.37,0,*4A
1485767234.6,22139,11.81,73552.5,0.35,-36.37,-36.67,0,*45
1485767235.8,22140,11.81,73550.5,0.35,-36.19,-36.55,0,*46
1485767237.0,22141,11.88,73550.8,0.35,-36.01,-36.67,0,*4F
1485767238.24,22142,11.81,73548.5,0.33,-36.07,-36.61,0,*4A
1485767239.44,22143,11.88,73554.0,0.35,-36.19,-36.67,0,*44
1485767240.7,22144,11.81,73552.5,0.37,-36.13,-36.49,0,*47
1485767241.92,22145,11.81,73548.3,0.37,-36.19,-36.73,0,*45
1485767243.13,22146,11.81,73546.5,0.37,-36.31,-36.73,0,*4C
1485767244.33,22147,11.81,73552.5,0.35,-36.19,-36.67,0,*40
1485767245.6,22148,11.88,73552.5,0.37,-35.95,-36.37,0,*4F
1485767246.84,22149,11.81,73554.0,0.37,-35.95,-36.31,0,*48
1485767248.06,22150,11.81,73546.8,0.37,-36.31,-36.73,0,*4B
1485767249.28,22151,11.81,73550.5,0.37,-36.31,-36.67,0,*4F
1485767250.52,22152,11.81,73548.8,0.37,-36.13,-36.67,0,*4C
1485767251.77,22153,11.81,73552.8,0.37,-36.49,-36.73,0,*47
1485767253.01,22154,11.81,73550.5,0.37,-36.37,-36.67,0,*4C
1485767254.21,22155,11.81,73548.3,0.39,-36.85,-37.03,0,*49
1485767255.47,22156,11.81,73550.8,0.37,-36.13,-36.37,0,*4D
1485767256.71,22157,11.88,73556.5,0.37,-36.01,-36.49,0,*46
1485767257.93,22158,11.81,73552.5,0.39,-35.95,-36.43,0,*43
1485767259.17,22159,11.81,73554.0,0.37,-36.49,-36.85,0,*44
1485767260.4,22160,11.81,73550.8,0.39,-36.13,-36.49,0,*4F
1485767261.65,22161,11.81,73554.3,0.37,-36.49,-36.73,0,*46
1485767262.89,22162,11.81,73552.0,0.39,-36.49,-36.79,0,*41
1485767264.11,22163,11.81,73550.5,0.37,-35.89,-36.01,0,*4E
1485767265.35,22164,11.81,73548.5,0.37,-36.19,-36.49,0,*4F
1485767266.57,22165,11.81,73554.3,0.37,-36.31,-36.73,0,*4D
1485767267.81,22166,11.81,73548.5,0.37,-36.91,-37.27,0,*44
1485767269.05,22167,11.81,73548.3,0.37,-36.67,-36.91,0,*40
1485767270.29,22168,11.81,73548.5,0.39,-36.49,-36.79,0,*4B
1485767271.5,22169,11.81,73548.5,0.39,-36.13,-36.43,0,*4C
1485767272.74,22170,11.81,73550.3,0.37,-36.55,-36.91,0,*47
1485767273.99,22171,11.81,73550.5,0.37,-36.37,-36.73,0,*4E
1485767275.2,22172,11.81,73548.8,0.37,-35.77,-36.19,0,*46
1485767276.44,22173,11.81,73548.8,0.37,-36.01,-36.37,0,*49
1485767277.68,22174,11.81,73550.8,0.37,-36.19,-36.49,0,*4E
1485767278.93,22175,11.81,73550.3,0.39,-36.25,-36.61,0,*44
1485767280.16,22176,11.81,73548.8,0.37,-36.49,-36.85,0,*49
1485767281.41,22177,11.81,73554.3,0.37,-36.85,-37.09,0,*4D
1485767282.65,22178,11.81,73550.3,0.37,-36.37,-36.67,0,*42
1485767283.87,22179,11.81,73550.5,0.37,-36.31,-36.67,0,*45
1485767285.09,22180,11.81,73552.8,0.37,-36.67,-37.03,0,*43
1485767286.31,22181,11.88,73554.3,0.37,-36.67,-37.03,0,*42
1485767287.53,22182,11.81,73552.8,0.37,-36.01,-36.31,0,*41
1485767288.77,22183,11.81,73552.5,0.37,-36.13,-36.55,0,*41
1485767289.99,22184,11.81,73548.8,0.37,-36.31,-36.67,0,*47
1485767291.21,22185,11.81,73552.5,0.37,-36.67,-37.03,0,*46
1485767292.46,22186,11.81,73548.3,0.37,-36.49,-36.67,0,*4A
1485767293.7,22187,11.81,73550.5,0.37,-36.55,-36.91,0,*4F
1485767294.92,22188,11.81,73554.0,0.37,-36.55,-36.73,0,*4C
1485767296.18,22189,11.81,73552.0,0.37,-36.13,-36.49,0,*46
1485767297.42,22190,11.81,73548.3,0.37,-36.85,-37.09,0,*44
1485767298.64,22191,11.81,73548.0,0.37,-36.19,-36.55,0,*48
1485767299.88,22192,11.81,73548.5,0.37,-36.49,-37.03,0,*4C